ATLAS AGENA R/B, 27785

Orbit data source: Space-Track

ATLAS AGENA R/B, 27785 is space debris in GEO originally from a launch on Tue, 06 Aug 1968 UTC launched from the Air Force Eastern Test Range (AFETR). Debris objects in space refer to the collection of defunct objects orbiting the Earth. Examples of debris include non-operational satellites, rocket bodies, and fragments generated from explosions, collisions, or faulty payload assembly.

Loading next visibility...
ATLAS AGENA R/B details
Identifier
27785, 1968-063B
Orbit
GEO
Last TLE update16 hours ago
Origin
Flag of USSAMSO (US)
ManufacturerLMSC
MissionSpacecraft
Bus & MotorAGENA D, Unknown motor
Mass~555 kg wet, 555 kg dry
Launch date (UTC)
1968-08-06 (56 years ago)
Launch vehicleUnknown
Launch site
Air Force Eastern Test Range (AFETR)
Object type
Payload
Rocket body
Debris
Shape & HBRCyl, 6.3 m
Radar Cross Section8.306 m²

Expand to show TLE details & history

TLE from 16 hours ago
0 ATLAS AGENA R/B
1 27785U 68063B   24355.83221262 -.00000138  00000-0  00000-0 0  9990
2 27785   5.7700 275.2347 1036626 246.2698 102.7876  1.01776337 20852
Epoch: 2024-12-20T19:58Z
Definitive object data (Epoch: 2024-12-20T19:58:23.17Z)
Latitude-0°
Longitude-114.05784°
Altitude36,740.463 km
Speed2.99 km/s
True Right ascension18h 21m 43s
True Declination0° 00' 00"
Sunlit
Object was in daylight at TLE epoch
Visualization TLE readout
Latitude-4.81547°
Longitude122.24098°
Altitude31,105.194 km
Speed3.424 km/s
Apparent Right ascension09h 56m 07s
Apparent Declination-12° 25' 36"
Sunlit
Object is in daylight
Visualization observer readout
Local Sidereal Time11:20:18
Azimuth205.067° SW
Elevation34.122°
Doppler factor1
Orbital elements
Apogee altitude39,698.935 km
Perigee altitude31,043.266 km
Semi-major axis41,749.237 km
Eccentricity0.1036626
Inclination5.77°
RAAN275.2347°
Arg. of periapsis246.2698°
True anomaly113.97725°
Mean anomaly102.7876°
Eccentric anomaly108.42264°
Mean motion0.25443 °/min
BSTARUnknown
Orbital period1414.92 mins
Loading historical data...
27785 neighbors
Authenticating...
Loading maneuver chart data...
Loading historical data...
Loading historical data...
Loading historical data...
Loading historical data...
Loading historical data...
Loading historical data...
Loading historical data...
Other satellites on launch #63 in the year 1968 (1968-08-06 UTC)

ATLAS AGENA R/B Visibility forecast

Observer location: undefined°, undefined

Span
Click to sort rows by Start time (UTC) header in descending order
Start Az.
Max El. time (UTC)
Max El. Az.
Max El.
End time (UTC)
End Az.
1440 mins2024-12-21 12:18:31.885Z205.057° SW2024-12-22 00:01:31.885Z200.761° SSW36.619°2024-12-22 12:18:31.885Z195.811° SSW
|